Regional Weather Roundup
Issued by NWS

Home | Current Version | Previous Version | Graphics & Text | Print | Product List | Glossary Off
Versions: 1 2 3 4 5 6 7 8 9 10 11 12 13 14 15 16 17 18 19 20 21 22 23 24 25 26 27 28 29 30 31 32 33 34 35 36 37 38 39 40 41 42 43 44 45 46 47 48 49 50

000
ASUS44 KFWD 190215
RWRTX
NORTH TEXAS HOURLY WEATHER ROUNDUP
NATIONAL WEATHER SERVICE FORT WORTH TX
800 PM CST THU JAN 18 2018

NOTE: "FAIR" INDICATES FEW OR NO CLOUDS BELOW 12,000 FEET WITH NO
SIGNIFICANT WEATHER AND/OR OBSTRUCTIONS TO VISIBILITY.

TXZ118-119-190300-
DALLAS/FORT WORTH METROPLEX

CITY           SKY/WX    TMP DP  RH WIND       PRES   REMARKS
DFW AIRPORT    FAIR      39  14  36 S13       30.30F WCI  31
DALLAS LOVE    FAIR      39  15  37 S8        30.32F WCI  33
FTW MEACHAM    FAIR      37  15  40 S10       30.29F WCI  30
DAL-EXECUTIVE  FAIR      38  15  39 S10       30.31F WCI  31
FTW-ALLIANCE   FAIR      36  14  40 S7        30.30F WCI  30
FTW-NAS-JRB    FAIR      38  12  34 S13       30.30F WCI  30
FTW-SPINKS     FAIR      35  15  45 S10       30.32F HAZE    WCI  27
ARLINGTON      FAIR      36  16  44 S10       30.32F WCI  28
GRAND PRAIRIE  FAIR      37  15  40 S8        30.33F WCI  31
ADDISON        CLEAR     37  12  35 S10G16    30.32S WCI  30
MESQUITE       PTCLDY    36  16  44 S8        30.34F WCI  29
LANCASTER      FAIR      36  14  40 S6        30.35F WCI  31
$$

TXZ091>094-102>105-117-120-121-131>134-190300-
NORTH CENTRAL TEXAS

CITY           SKY/WX    TMP DP  RH WIND       PRES   REMARKS
SHRMAN/DENISON FAIR      33  14  45 S6        30.30S WCI  27
GAINESVILLE    FAIR      33  11  39 S7        30.31S WCI  27
BOWIE          FAIR      35  14  41 SE9       30.25S WCI  28
BRIDGEPORT     FAIR      36  14  40 S9        30.29F WCI  29
DENTON         FAIR      36  13  38 S12       30.30F WCI  28
MCKINNEY       CLOUDY    38  16  40 S10       30.32S WCI  31
BONHAM         CLOUDY    36  15  42 S12       30.32S WCI  28
GREENVILLE     MOCLDY    37  19  48 S7        30.32F WCI  32
ROCKWALL       MOCLDY    37  16  42 MISG      30.33R
WAXAHACHIE     FAIR      34  17  50 S10       30.34F WCI  26
CLEBURNE       FAIR      34  14  44 S10       30.32F WCI  26
GRANBURY       FAIR      37  13  36 SE8       30.31F WCI  31
$$

TXZ083>090-098>101-113>116-127>130-139>142-154-155-190300-
WESTERN NORTH TEXAS

CITY           SKY/WX    TMP DP  RH WIND       PRES   REMARKS
WICHITA FALLS  FAIR      38  14  37 S13       30.21S WCI  30
WF-KICKAPOO    FAIR      37  15  41 S10       30.24S WCI  29
VERNON         FAIR      40  18  40 S9        30.18F WCI  34
ABILENE        FAIR      37  20  50 S8        30.21F WCI  31
ABILENE-DYESS  FAIR      38  19  46 SW5       30.21S WCI  34
GRAHAM           N/A     38  15  38 SE8       30.23S WCI  32
BRECKENRIDGE   FAIR      42  14  32 S13       30.22F WCI  35
CISCO          FAIR      41  25  52 S12       30.22F WCI  34
EASTLAND       FAIR      39  15  36 S7        30.23F WCI  34
RANGER         FAIR      36  16  44 S9        30.24F WCI  29
MINERAL WELLS  FAIR      36  13  38 SE13      30.25F WCI  27
STEPHENVILLE   FAIR      35  12  38 S8        30.29F WCI  29
COMANCHE       FAIR      42  17  37 S9        30.26F WCI  36
BROWNWOOD      CLOUDY    45  32  61 S15G21    30.26F WCI  38
COLEMAN        FAIR      43  28  56 S12       30.25F WCI  37
$$

TXZ143>147-156>162-174-175-190300-
CENTRAL TEXAS

CITY           SKY/WX    TMP DP  RH WIND       PRES   REMARKS
WACO           CLOUDY    38  17  42 S13       30.37F WCI  30
WACO-TSTC      CLOUDY    37  18  44 SE7       30.38F WCI  32
WACO-MCGREGOR  CLOUDY    38  16  40 SE9       30.36F WCI  31
CORSICANA      CLOUDY    39  16  39 S9        30.38F WCI  33
MEXIA          CLOUDY    37  16  42 S6        30.38S WCI  32
HEARNE         CLOUDY    37  20  51 SE5       30.43F WCI  33
CAMERON        CLOUDY    39  18  43 SE5       30.39F WCI  35
TEMPLE         MOCLDY    38  17  42 SE9       30.37F WCI  31
KILLEEN        CLOUDY    38  16  39 SE8       30.33F WCI  33
KILLEEN-SKYLRK MOCLDY    39  17  41 SE9       30.35F WCI  33
FORT HOOD      CLOUDY    39  16  39 SE9       30.31F WCI  33
GATESVILLE     MOCLDY    37  16  41 SE5       30.35F WCI  34
HAMILTON       CLOUDY    37  16  41 S12       30.30F WCI  30
LAMPASAS       CLOUDY    40  17  39 S5        30.32S WCI  37
$$

TXZ095>097-106>112-122>126-135>138-148>153-164>167-190300-
EAST TEXAS

CITY           SKY/WX    TMP DP  RH WIND       PRES   REMARKS
PARIS          MOCLDY    32  14  47 S7        30.34S WCI  26
SULPHUR SPRNGS MOCLDY    38  16  40 S5        30.36S WCI  35
MOUNT PLEASANT FAIR      36  15  42 SE5       30.37S WCI  32
GILMER         CLOUDY    40  17  39 S5        30.36F WCI  36
MINEOLA        CLOUDY    41  18  38 S5        30.34F WCI  38
TYLER          CLOUDY    41  17  38 S8        30.35F WCI  36
LONGVIEW       CLOUDY    41  24  51 S5        30.37S WCI  38
MARSHALL       CLOUDY    37  15  40 CALM      30.39F
ATHENS         CLOUDY    36  16  44 S5        30.37S WCI  32
PALESTINE      CLOUDY    39  17  41 S5        30.40S WCI  35
JACKSONVILLE   CLOUDY    40  15  36 S3        30.39S
CENTER         CLOUDY    38  16  41 CALM      30.41S
NACOGDOCHES    CLOUDY    40  17  39 S3        30.41S
LUFKIN         CLOUDY    40  18  41 SW9       30.41S WCI  34
$$

SUPPLEMENTAL OBSERVATIONS (NWS FORT WORTH AREA)

CITY           SKY/WX    TMP DP  RH WIND       PRES   REMARKS
DENISON DAM      N/A     39  16  38 S7          N/A  WCI  34
CADDO GRASSLND   N/A     36  14  41 S7          N/A  WCI  30
PAT MAYSE LAKE   N/A     37  16  41 SE10        N/A  WCI  30
GREENVILLE       N/A     37  18  44 S6          N/A  WCI  33
CEDAR HILL       N/A     36  16  44 S7          N/A  WCI  30
LBJ GRASSLAND    N/A     36  12  38 SE9         N/A  WCI  29
COMANCHE         N/A     43  18  36 S10         N/A  WCI  37
MCGREGOR         N/A     37  16  41 SE7         N/A  WCI  32
LAKE LIMESTONE   N/A     37  18  44 S6          N/A  WCI  33
ATHENS           N/A     39  16  38 S7          N/A  WCI  34
$$

SUPPLEMENTAL OBSERVATIONS (NWS NORMAN AREA)

CITY           SKY/WX    TMP DP  RH WIND       PRES   REMARKS
GOODLETT         N/A     36  16  44 S8        30.15F WCI  30
ODELL            N/A     40  23  49 S13       30.19S WCI  33
CROWELL          N/A     37  20  50 S7        30.18F WCI  31
KNOX CITY        N/A     37  18  45 S13       30.19F WCI  29
SEYMOUR          N/A     38  17  41 S8        30.20F WCI  32
MILLERS CREEK    N/A     41  21  45 S9          N/A  WCI  35
$$

SUPPLEMENTAL OBSERVATIONS (NWS SAN ANGELO AREA)

CITY           SKY/WX    TMP DP  RH WIND       PRES   REMARKS
WEINERT          N/A     40  17  39 S14       30.20F WCI  32
HASKELL          N/A     41  16  36 S7        30.21R WCI  36
THROCKMORTON     N/A     41  17  38 S7        30.23S WCI  36
CLYDE            N/A     39  20  47 S7        30.22S WCI  34
HAMBY            N/A     37  18  44 S7          N/A  WCI  32
IVIE RESERVOIR   N/A     43  30  61 S14         N/A  WCI  36
COLORADO BEND    N/A     45  19  36 S6          N/A
$$

SUPPLEMENTAL OBSERVATIONS (NWS SHREVEPORT AREA)

CITY           SKY/WX    TMP DP  RH WIND       PRES   REMARKS
CLARKSVILLE      N/A     34  10  37 S5          N/A  WCI  30
TEXARKANA        N/A     28  25  86 CALM        N/A
LINDEN           N/A     34  16  47 CALM        N/A
CADDO LAKE       N/A     30  23  74 CALM        N/A
GILMER           N/A     39  14  35 S3          N/A
HENDERSON        N/A     41  14  33 S6          N/A  WCI  37
LUFKIN           N/A     39  19  45 MISG        N/A
N SABINE NF      N/A     36  21  55 MISG        N/A
$$

SUPPLEMENTAL OBSERVATIONS ARE A COLLECTION OF AUTOMATED INSTRUMENTS
THAT ARE MAINTAINED BY A VARIETY OF FEDERAL AND STATE AGENCIES.
CERTAIN ELEMENTS...SUCH AS HUMIDITY VALUES AND SUSTAINED WIND
SPEEDS...MAY BE APPROXIMATED.




USA.gov is the U.S. government's official web portal to all federal, state and local government web resources and services.